Simultaneous Nadir Overpasses (SNOs) Predictions

Prediction of SNOs between AURA and NPP Satellite Orbit:

Table of predicted SNOs for the next 14.0 days since TLE Epoch: 5/7/2016
Index Date (AURA) Time (AURA) Lat,Lon (AURA) SZA (AURA ) Date (NPP) Time (NPP) Lat,Lon (NPP) SZA (NPP ) Distance(km) Time Diff (sec)
1 05/08/2016 10:35:46 79.16, -84.43 75.77 05/08/2016 10:35:05 79.16, -84.46 75.81 0.76 41
2 05/08/2016 11:25:06 -79.44, 85.02 104.64 05/08/2016 11:25:42 -79.44, 85.03 104.67 0.38 36
3 05/11/2016 02:52:11 79.30, 32.35 74.88 05/11/2016 02:51:56 79.31, 32.45 74.87 2.24 15
4 05/11/2016 03:41:31 -79.58,-158.14 105.54 05/11/2016 03:42:33 -79.59,-158.00 105.61 3.18 62
5 05/13/2016 18:19:18 -79.09, -20.75 105.47 05/13/2016 18:18:12 -79.10, -20.67 105.44 1.91 66
6 05/13/2016
